Wind_Speed
20 21 21 21 21 21 21 20 20 19 18 18 18 16 15 14 14 13 14 15 15 15 14 14 15 15 14 14 14 13 13 13 13 13 13 12 11 11 11 12 12 11 11 11 11 11 11 11 11 11 12 12 11 11 11 11 11 11 11 11 11 11 11 10 11 13 12 12 13 11 10 11 12 13 13 13 13 13 13 14 15 16 17 18 17
19 19 20 21 22 22 21 21 20 20 19 18 17 16 15 15 14 14 14 15 16 15 15 15 15 15 14 14 14 13 13 13 13 13 13 13 12 12 12 13 13 13 12 11 11 11 12 12 11 11 11 12 11 11 10 10 10 9 9 10 10 9 9 10 11 13 13 12 12 11 11 13 14 14 15 14 14 15 15 15 15 16 16 16 16
18 19 19 20 21 21 22 21 21 20 20 19 18 17 16 15 15 15 15 15 16 16 15 15 15 15 15 14 13 13 14 13 13 13 13 13 13 13 12 13 14 13 12 11 11 11 11 11 10 10 10 11 10 10 10 9 9 9 9 9 9 8 8 10 11 12 13 12 12 13 14 14 15 16 15 15 16 16 16 16 16 15 14 14 15
18 19 19 19 20 21 22 22 21 21 21 20 19 18 17 16 15 15 15 14 15 15 15 15 14 14 15 14 14 14 14 14 14 14 14 14 14 13 13 13 13 13 12 12 12 11 11 11 10 9 9 9 9 8 8 8 8 8 8 8 9 9 9 10 10 11 12 13 13 14 15 16 16 16 16 16 16 16 16 16 15 15 14 15 17
18 19 19 19 20 21 22 22 22 22 21 20 19 18 17 16 16 16 15 15 14 15 15 15 15 15 15 14 14 13 13 13 13 14 14 14 14 13 13 13 13 13 13 12 12 12 12 11 10 8 9 9 8 7 6 7 7 8 8 8 8 9 10 10 11 11 11 12 14 15 16 16 16 16 17 17 16 15 15 16 16 16 16 17 19
18 19 20 20 20 21 21 22 22 22 21 20 19 18 18 17 16 16 16 15 15 15 15 15 16 15 14 14 14 13 13 13 13 13 14 14 13 13 13 13 13 13 13 12 12 12 12 12 10 10 10 9 9 8 7 7 8 9 9 9 9 10 11 11 11 12 12 13 14 16 17 17 17 18 18 17 17 17 18 19 18 18 19 21 22
19 19 20 20 21 20 21 22 22 22 22 20 19 19 18 18 17 16 16 16 16 15 15 15 16 15 14 13 13 13 13 13 13 13 13 14 13 13 13 13 13 13 13 12 12 12 11 11 11 11 10 10 10 10 10 9 9 9 9 10 11 12 12 13 13 13 13 14 15 17 19 19 19 19 19 19 19 19 21 22 22 21 23 24 24
21 19 20 20 21 21 20 20 21 22 21 21 20 19 19 19 18 17 17 17 17 16 15 15 15 15 14 14 13 13 14 14 13 12 13 13 14 14 13 13 13 14 14 13 13 12 11 11 11 11 11 11 12 12 12 11 11 10 10 10 11 12 13 14 14 15 15 16 17 18 20 21 21 21 21 22 21 21 22 24 25 25 25 25 23
22 21 20 20 21 21 21 20 20 21 22 21 20 20 20 19 18 18 18 18 17 16 16 16 15 15 14 14 14 14 15 15 14 12 12 12 13 13 13 13 14 14 14 15 15 13 12 12 12 13 13 14 14 14 13 13 13 13 12 12 13 14 14 15 15 16 17 18 18 19 21 22 22 22 23 24 23 23 24 25 26 26 26 25 22
23 22 21 20 20 21 22 21 21 21 22 22 21 20 20 19 19 18 19 19 18 17 17 17 16 16 15 15 15 15 16 16 16 14 13 12 13 13 14 15 15 15 15 15 16 15 13 13 14 15 16 16 15 15 14 15 16 16 15 14 15 16 16 16 16 16 16 18 18 19 21 21 21 22 24 24 24 24 25 26 27 27 27 27 23
25 23 22 20 20 21 22 22 22 21 21 22 22 21 21 20 19 19 19 19 19 18 18 18 18 17 16 16 16 16 16 16 15 15 14 14 14 14 15 15 15 16 16 15 15 15 15 15 16 17 17 17 17 17 16 17 18 18 17 16 16 17 18 17 17 16 16 17 17 18 20 21 21 22 23 23 24 24 25 26 27 27 26 26 24
28 26 23 21 20 21 22 23 23 23 22 22 23 22 21 20 19 19 19 19 19 19 19 19 18 17 17 17 17 17 17 16 16 16 15 15 16 16 16 16 16 16 16 16 16 16 16 16 17 17 17 18 17 17 17 18 18 18 17 17 17 17 17 17 17 17 17 18 19 19 20 21 21 22 22 23 24 25 25 26 25 23 21 21 21
31 29 26 23 22 21 21 22 23 23 23 22 22 22 21 20 20 19 20 20 20 20 20 19 19 18 18 18 18 18 18 17 17 18 18 17 18 18 18 17 18 18 17 17 17 17 17 18 19 19 19 19 18 18 18 19 19 19 18 18 19 19 20 20 20 20 20 21 21 21 20 21 21 21 22 24 25 25 24 23 21 19 18 19 18
32 30 28 26 24 22 21 21 22 22 21 20 19 19 20 20 20 20 20 20 21 22 22 21 20 19 18 18 18 19 19 19 19 19 19 19 19 19 19 18 19 19 18 18 18 18 19 19 20 21 21 20 20 19 19 20 20 20 20 21 21 22 23 23 23 23 23 23 22 21 20 20 21 22 23 24 25 24 22 20 19 18 19 19 17
31 30 28 27 25 23 22 20 20 21 20 19 18 19 19 20 20 21 21 21 22 23 23 23 22 20 19 18 18 19 20 20 20 19 19 20 20 20 20 20 20 20 20 19 19 19 20 21 21 22 22 22 22 21 21 21 22 23 23 23 23 23 23 23 23 23 23 22 21 20 20 21 21 22 23 23 22 21 19 18 18 19 18 17 16
30 28 27 27 25 24 24 24 23 22 21 20 20 21 21 21 21 22 23 23 23 23 23 23 23 22 22 21 20 20 21 21 22 22 21 21 21 21 22 22 22 22 22 21 21 21 21 22 24 24 24 24 24 24 24 25 25 26 26 26 25 23 22 22 21 21 21 21 21 20 20 21 21 21 21 20 18 16 16 16 17 18 17 16 14
26 26 28 28 26 25 26 28 28 26 25 24 23 22 23 24 25 25 26 26 25 25 24 24 24 23 23 23 22 22 21 22 23 24 24 24 24 24 24 24 24 24 23 23 23 23 23 24 25 25 26 26 27 27 28 28 29 28 28 27 25 24 22 21 21 21 21 21 20 20 20 20 20 19 17 16 15 14 14 15 16 17 17 16 15
24 26 28 28 27 26 26 28 29 28 27 26 24 24 24 25 26 28 28 28 28 27 27 26 25 25 23 22 22 22 22 22 23 25 26 27 27 27 27 27 26 25 25 25 25 25 25 26 26 26 26 27 28 29 30 31 31 30 29 27 25 24 23 21 21 21 20 20 20 19 18 17 16 15 14 14 14 14 14 15 15 17 18 18 17
23 23 23 24 25 23 21 23 25 26 26 25 25 26 26 26 27 29 30 29 28 28 28 28 27 27 25 24 24 24 25 25 25 26 27 28 29 29 29 28 28 27 27 27 27 27 28 28 28 28 28 28 29 30 31 31 32 31 28 26 23 21 21 20 20 19 18 18 17 15 14 13 12 12 13 13 13 14 15 16 17 18 19 19 19
19 17 18 20 21 19 18 20 22 23 25 25 24 24 24 25 26 28 29 30 29 28 27 28 28 27 26 26 25 26 26 27 27 27 27 28 29 29 29 29 29 29 28 28 29 29 29 29 30 30 31 32 32 32 32 32 32 30 28 24 22 21 21 20 18 17 15 15 14 11 10 10 10 11 12 13 13 14 15 16 17 18 19 19 19
11 10 12 15 17 18 19 20 22 25 26 26 25 24 24 25 25 25 27 30 30 29 28 27 27 26 26 26 27 27 27 27 28 28 28 28 28 28 29 29 29 29 28 28 30 30 31 33 34 34 33 33 33 34 34 33 32 30 27 24 21 20 20 16 13 11 11 10 10 9 8 9 9 10 11 12 14 14 15 16 17 18 19 19 19
3 4 6 9 11 13 14 16 20 22 23 23 23 22 22 23 24 24 25 26 28 28 28 27 25 24 24 26 27 28 28 28 28 29 29 29 30 30 30 29 29 30 29 28 29 30 32 35 35 34 33 33 34 35 35 33 32 29 27 23 18 14 12 9 6 5 7 7 8 8 8 8 9 10 11 13 13 14 15 17 19 20 20 19 18
1 2 3 4 6 9 11 13 14 14 15 15 15 16 17 18 20 22 23 23 23 23 23 22 20 20 21 24 25 25 24 23 24 25 26 27 27 28 29 29 29 29 28 27 29 31 33 35 34 32 30 29 31 32 30 29 28 24 19 16 14 9 5 4 4 6 8 9 9 9 9 9 10 11 12 13 14 16 18 20 22 22 21 19 18
4 4 3 2 3 5 7 7 6 6 7 8 10 12 12 13 13 15 17 17 16 14 13 12 12 13 16 18 17 14 12 12 13 13 14 16 17 17 18 17 16 15 14 16 20 22 23 24 23 21 18 16 18 20 19 21 22 15 8 8 9 7 3 4 6 8 9 10 10 10 10 10 12 13 14 15 17 19 21 23 23 22 19 17 16
10 9 8 5 3 1 2 2 2 2 2 3 2 3 5 7 8 8 8 6 4 3 5 5 5 7 8 8 6 3 2 2 3 2 2 5 6 6 6 5 5 4 5 5 6 5 5 6 6 5 4 3 4 5 6 10 11 7 4 4 5 4 3 5 8 9 9 9 9 9 10 11 13 15 16 18 19 21 22 22 21 18 16 14 14
12 12 12 10 9 7 6 7 7 7 8 9 8 7 6 7 7 6 5 5 5 5 5 4 3 3 3 2 2 4 7 9 9 9 7 5 5 5 5 5 6 6 4 4 2 3 5 7 7 5 4 3 2 2 1 2 2 3 4 4 4 4 5 7 8 8 8 8 8 9 11 12 14 16 18 20 21 21 21 19 17 14 12 12 13
10 11 11 10 10 10 10 10 10 9 9 10 10 10 10 10 10 11 11 9 8 8 7 8 7 7 6 6 5 6 7 9 9 9 9 9 8 8 9 10 10 11 11 11 11 10 11 11 9 7 6 5 4 3 1 0 2 4 6 5 5 5 7 7 8 8 7 8 9 10 12 14 16 19 20 21 20 19 17 15 14 13 12 11 11
6 7 7 7 7 8 9 9 9 8 9 9 9 10 10 9 9 9 10 10 9 8 7 7 6 5 4 4 4 4 5 6 7 8 8 9 9 10 10 10 11 12 13 13 12 11 10 9 7 6 6 4 3 2 2 3 5 6 6 6 6 6 6 6 6 6 7 8 10 11 14 17 18 19 19 18 16 15 13 13 12 12 12 12 13
6 5 4 4 5 6 7 8 8 9 9 9 9 9 9 8 8 8 9 9 8 7 6 5 4 3 3 2 3 3 4 5 6 7 9 10 10 10 10 11 11 12 11 11 9 7 5 5 3 2 1 1 3 4 5 6 6 6 6 5 5 4 4 4 5 6 8 10 12 14 16 17 16 15 14 13 12 12 12 12 12 13 14 14 15
5 4 3 4 5 6 6 6 6 7 8 8 9 9 9 8 8 8 8 8 8 7 6 5 4 3 2 2 2 3 4 5 6 7 8 10 11 12 13 14 14 13 11 9 6 4 1 1 3 4 5 5 5 5 5 5 4 4 3 2 2 2 4 5 7 9 11 13 14 14 14 14 13 12 11 11 11 12 13 14 15 15 16 16 16
5 4 3 3 3 5 5 5 5 6 7 8 9 9 9 8 8 8 7 7 7 6 5 4 3 2 1 0 2 4 5 6 7 9 10 11 12 13 13 13 11 9 7 4 3 3 4 6 7 7 7 6 6 5 4 3 2 1 1 2 4 6 7 9 10 12 13 13 14 14 13 13 12 12 11 12 12 14 15 16 16 16 17 16 16
9 7 6 4 3 4 4 4 5 5 6 7 7 7 7 7 7 7 7 7 7 7 6 5 3 2 1 1 3 5 6 7 8 9 9 9 9 9 8 7 6 4 3 0 3 6 7 8 8 7 6 5 4 3 2 1 2 4 5 6 8 9 10 11 12 13 14 14 14 14 14 13 13 13 13 13 14 15 16 17 17 17 17 17 18
9 8 7 6 5 4 3 3 3 4 5 5 5 6 6 6 7 7 7 8 8 8 7 6 5 4 2 2 2 3 4 4 5 4 4 4 5 5 7 8 7 7 6 4 4 7 8 7 6 5 4 2 2 1 2 3 5 7 8 9 10 11 12 13 14 14 14 14 14 14 14 14 14 14 14 15 16 17 18 19 20 20 20 20 20
6 7 6 6 5 4 3 3 3 3 4 4 5 5 5 5 6 6 7 8 8 7 7 7 6 5 4 3 3 3 3 4 5 6 7 7 8 10 12 11 10 9 9 7 6 6 6 5 4 3 2 1 2 2 3 4 6 7 8 10 11 12 13 13 14 14 14 14 14 14 14 15 15 15 16 17 18 19 20 21 22 23 23 24 24
2 3 3 4 4 4 4 3 3 3 4 4 4 5 5 5 5 5 6 7 7 7 6 6 5 5 5 4 4 4 5 6 7 8 9 10 11 13 12 11 10 10 9 7 6 5 3 2 1 1 1 2 3 4 5 6 7 8 9 10 11 12 13 13 14 14 14 14 14 15 15 16 16 17 18 19 20 21 22 23 24 25 25 26 26
3 2 2 2 3 3 3 4 4 4 3 3 3 4 4 5 5 5 5 6 6 6 5 5 4 5 4 4 4 5 5 5 7 8 9 10 11 11 9 9 10 10 8 6 5 4 2 1 1 2 3 3 4 5 6 7 8 8 9 10 11 11 12 13 14 14 15 15 15 16 16 17 17 18 19 21 22 23 24 25 26 26 26 27 27
5 5 4 4 3 3 3 3 4 4 4 4 4 4 4 4 5 5 6 6 6 6 6 5 4 4 4 3 4 5 4 4 5 6 7 8 8 7 6 7 8 8 7 6 5 5 5 4 4 4 5 5 6 7 8 8 9 9 10 11 11 12 13 14 15 15 16 16 17 17 18 19 20 21 22 23 24 25 26 27 28 28 28 27 26
5 6 6 5 4 4 3 3 3 4 5 6 6 7 7 7 7 7 7 7 7 6 6 6 5 5 4 4 4 5 4 2 2 3 4 4 4 4 5 7 8 7 7 6 5 5 5 6 6 6 6 7 8 9 9 10 10 11 11 12 12 13 14 15 16 17 17 18 19 19 20 21 22 23 24 25 26 27 28 28 29 28 27 26 24
3 5 5 5 4 4 3 3 3 3 4 5 6 7 7 8 8 9 8 8 7 7 7 6 6 6 6 6 6 6 5 3 2 2 2 3 4 5 7 8 8 8 7 6 5 5 5 6 6 7 7 8 9 9 10 10 11 11 12 13 14 14 15 16 17 17 18 19 20 21 22 22 23 24 25 26 28 28 28 28 27 26 24 22 21
3 4 5 6 5 4 4 3 3 3 3 4 5 5 5 5 6 7 8 8 9 9 8 8 8 7 7 8 8 7 7 6 5 5 5 5 5 6 8 8 8 7 7 7 6 6 6 6 7 7 8 9 9 10 10 11 12 13 14 15 15 16 16 17 18 18 19 20 20 21 22 22 23 25 26 27 28 27 26 24 23 21 20 19 18
5 5 6 7 6 6 6 5 4 4 4 5 5 5 4 4 4 5 6 8 9 9 9 9 8 8 8 9 9 9 9 8 8 7 7 6 7 8 8 8 7 7 7 7 8 8 8 8 9 9 10 10 11 12 12 13 14 15 16 16 17 17 18 18 18 18 19 19 20 20 21 22 23 25 26 27 26 23 21 20 19 17 16 15 14
8 7 8 8 8 8 8 7 7 6 6 6 5 5 5 5 5 5 6 7 8 9 10 10 9 8 8 9 10 11 11 11 10 9 8 8 8 8 8 7 7 7 7 7 8 9 9 10 11 11 12 12 13 13 14 14 15 16 16 16 17 17 17 17 17 17 18 18 18 19 20 21 23 24 25 24 22 19 18 17 16 15 14 13 13
10 10 9 9 9 9 9 9 9 9 9 9 8 7 7 7 7 7 7 8 8 9 10 11 11 10 10 10 10 11 12 12 11 10 9 9 8 8 8 8 8 8 8 9 9 10 11 12 12 13 13 13 13 13 14 14 15 15 16 16 15 15 15 16 16 16 16 16 17 18 19 21 22 23 23 21 18 16 15 14 13 12 12 12 13
11 11 11 11 11 12 12 12 12 12 12 12 12 11 11 10 10 10 10 10 10 10 10 11 12 12 12 12 12 11 11 11 10 10 10 9 9 9 9 10 10 11 11 11 11 11 12 12 11 11 11 12 13 14 15 16 17 17 16 15 15 15 15 14 13 13 14 14 15 17 18 20 21 21 20 17 14 13 12 11 11 11 11 12 13
9 10 11 11 12 12 13 14 14 15 15 16 16 16 16 15 14 13 12 13 13 13 13 13 13 13 13 12 11 11 10 10 10 10 10 9 9 10 11 12 13 14 14 13 13 12 11 10 10 10 11 13 15 16 18 18 18 17 17 16 16 14 12 10 10 11 11 12 14 16 18 19 19 19 17 15 13 12 11 11 11 11 11 12 13
8 8 9 10 10 11 12 13 14 16 17 18 19 20 20 19 19 18 17 16 15 15 16 16 15 14 12 11 10 10 10 10 10 10 9 10 10 11 13 14 14 14 14 13 13 12 10 10 10 12 14 16 17 19 19 19 18 18 16 14 13 11 9 8 8 9 10 13 15 16 17 17 16 16 15 14 13 12 12 11 11 11 12 12 11
8 8 8 9 9 10 11 12 13 15 16 16 18 19 20 20 21 21 21 20 18 18 18 17 15 12 11 10 10 10 9 9 9 8 9 10 11 12 13 14 14 13 13 12 11 11 10 11 13 15 17 18 19 20 20 19 18 17 15 11 9 9 9 8 8 10 13 14 15 15 16 17 17 16 15 13 13 12 12 12 12 12 12 10 9
9 9 10 11 12 13 13 14 14 15 16 16 17 18 18 19 19 19 19 21 22 22 21 20 16 13 11 11 11 11 11 10 10 10 11 12 13 13 14 14 13 12 12 11 11 12 13 14 16 17 18 20 20 20 20 19 18 16 13 10 9 9 9 9 11 13 14 13 13 14 16 17 17 15 13 13 13 12 12 12 12 12 10 8 8
14 15 16 17 17 17 17 17 16 15 16 16 17 16 16 16 15 13 13 15 18 20 21 20 18 15 13 12 12 12 12 11 12 12 13 14 14 14 14 13 12 11 11 11 12 13 15 16 17 18 19 20 20 20 19 18 16 14 13 10 8 9 10 11 12 13 13 13 14 15 15 14 13 12 12 12 12 12 12 12 12 11 9 8 9
19 20 21 21 21 20 19 18 17 15 15 15 14 13 12 11 9 8 8 9 11 14 16 15 13 12 12 12 12 12 12 12 13 13 14 14 13 12 12 11 11 11 12 12 14 15 16 17 18 19 19 19 19 19 17 15 13 13 12 9 8 10 10 10 11 13 13 13 14 14 12 11 12 13 13 12 12 12 12 12 11 10 9 9 9
19 19 20 20 20 20 19 17 15 13 12 12 11 9 9 7 6 6 6 7 7 9 11 11 10 10 11 12 12 13 13 13 13 13 12 12 11 11 10 10 11 11 12 13 15 16 18 18 19 19 19 18 17 15 13 11 12 12 11 10 9 9 8 8 12 14 13 11 13 13 11 11 13 14 14 14 14 14 13 12 11 9 8 9 9
Wind_Direction
224 225 224 222 223 225 227 227 228 228 228 230 230 227 227 229 230 232 231 230 230 230 231 231 231 232 233 235 237 238 236 233 233 236 239 242 244 244 244 246 248 249 249 250 255 261 263 263 262 264 268 271 275 279 279 278 279 280 282 285 288 292 296 300 304 311 319 326 333 339 335 331 337 342 342 339 338 336 331 325 321 320 321 326 331
222 225 225 225 225 226 227 228 229 230 229 230 229 228 230 231 232 235 235 232 232 233 234 233 233 234 234 234 236 237 238 237 236 239 243 246 249 248 246 247 249 250 251 252 255 260 265 267 265 263 264 267 270 271 270 268 271 278 285 287 287 284 286 294 303 310 320 330 336 337 333 330 332 337 338 335 334 334 331 328 326 324 327 332 337
223 224 225 226 227 227 228 228 229 230 229 229 229 228 230 231 232 236 236 234 234 235 235 234 234 236 236 236 235 234 236 238 239 241 244 248 252 251 247 246 249 251 253 254 255 259 265 271 271 265 263 266 268 267 265 265 272 276 276 277 280 278 279 287 296 306 316 327 333 334 332 330 331 334 335 333 332 330 329 330 331 333 335 337 338
225 225 226 226 228 229 229 229 229 230 230 229 229 229 229 230 232 233 234 235 234 234 235 234 235 237 238 237 236 235 237 240 242 244 245 248 252 252 249 249 251 253 255 256 255 255 260 268 271 266 263 267 269 266 263 266 275 278 272 269 269 267 271 278 286 297 307 316 324 328 328 330 332 334 332 328 328 329 330 333 335 335 335 336 337
227 227 227 227 227 229 229 229 229 229 229 230 229 229 229 230 230 231 234 234 232 233 234 234 235 237 238 237 237 237 240 242 244 244 245 248 250 251 251 251 254 256 256 255 252 251 256 261 262 257 255 259 258 253 253 261 272 275 270 266 264 264 267 272 280 289 298 307 315 319 322 328 331 331 328 325 324 328 331 334 335 331 330 333 338
228 228 229 228 228 230 230 230 229 229 229 229 229 229 230 230 230 231 233 233 232 234 234 234 235 239 240 239 237 237 240 243 244 244 244 245 246 246 247 249 252 254 254 252 251 249 250 254 256 251 247 245 241 237 245 258 269 271 266 261 261 264 266 270 276 282 290 299 306 311 316 323 327 327 326 324 324 326 327 329 330 328 328 331 336
228 228 230 230 231 231 232 231 230 229 230 230 230 230 230 232 233 233 234 235 233 234 235 235 236 238 240 240 240 240 241 242 242 241 240 240 240 240 242 246 249 250 250 249 249 250 250 252 252 244 236 236 236 239 249 260 269 276 276 272 267 266 268 270 274 278 284 292 298 303 309 316 321 322 322 322 321 322 324 326 327 327 328 330 333
230 231 231 232 233 234 235 234 232 231 231 232 232 233 232 233 236 237 237 236 234 234 235 235 235 238 240 240 241 243 241 238 236 235 235 237 239 240 243 248 250 250 251 250 250 252 253 253 248 236 232 238 242 248 258 267 274 279 281 281 278 275 276 276 275 276 280 286 292 297 302 309 314 317 318 318 318 320 323 326 327 327 328 329 332
232 233 233 235 236 236 237 237 234 232 233 233 233 233 234 235 236 237 237 236 236 235 235 234 234 238 240 240 241 240 237 234 232 232 235 239 243 246 249 251 254 255 255 254 253 253 253 252 247 239 238 244 248 255 266 275 281 285 285 285 285 285 286 286 283 280 279 282 288 294 298 304 309 313 315 317 318 321 323 325 325 326 326 326 331
233 235 236 239 240 238 237 237 236 234 234 234 234 234 235 236 235 234 234 235 236 235 234 234 235 238 241 241 241 240 238 237 235 235 239 244 248 252 253 254 256 257 258 258 255 252 252 252 250 247 248 251 254 261 270 277 282 287 288 286 285 286 288 289 288 286 284 284 288 293 296 301 306 309 311 314 316 318 320 322 323 324 324 324 330
234 236 237 240 243 242 239 237 236 236 236 236 237 237 238 237 236 234 233 234 236 236 235 235 237 239 242 244 243 243 243 243 243 242 244 249 253 256 257 257 257 257 258 258 257 253 250 250 252 253 255 258 262 266 272 279 283 286 286 283 281 283 284 285 286 286 287 289 291 294 297 300 303 304 306 309 311 314 318 320 321 322 324 325 331
236 238 239 239 242 243 241 239 238 239 239 238 238 239 239 238 236 234 234 234 234 235 236 238 239 241 245 248 248 249 250 250 251 250 251 254 258 260 261 260 258 258 259 259 259 257 255 253 253 254 257 261 265 269 274 280 283 284 284 283 283 284 284 284 285 286 288 291 293 294 296 297 299 300 301 304 307 312 316 317 318 320 323 328 334
236 238 238 238 240 242 240 237 236 239 240 239 238 237 237 238 235 233 232 232 231 233 236 239 241 244 249 252 253 254 256 257 257 257 258 259 260 262 262 261 259 258 257 258 259 259 259 258 257 256 258 261 264 271 277 280 281 281 283 287 289 287 286 285 285 287 290 292 294 294 293 294 295 297 299 302 306 310 312 314 316 319 323 330 335
237 237 238 238 240 244 244 237 233 233 233 233 234 235 237 238 236 232 231 230 230 232 235 239 243 248 253 257 258 258 260 261 261 261 262 261 261 261 261 261 261 259 258 258 259 259 259 260 260 259 260 262 265 270 274 277 278 280 284 289 290 288 286 284 285 287 290 293 295 294 293 293 294 295 298 300 304 307 310 312 315 318 323 331 334
239 237 239 240 239 244 250 246 235 226 223 226 233 238 242 242 238 233 231 231 233 237 240 242 245 249 253 256 258 259 260 261 261 260 260 260 260 260 260 261 261 261 260 261 261 262 262 261 261 262 262 264 266 268 271 273 275 278 282 287 290 291 288 285 285 288 290 293 294 294 293 293 293 294 297 300 303 307 311 313 315 319 323 327 326
242 238 241 244 241 241 250 256 250 236 227 227 232 237 242 245 244 240 237 237 239 241 243 245 247 249 251 253 256 259 260 261 260 258 257 257 258 259 261 262 262 263 264 264 266 267 266 264 263 264 265 266 267 268 269 270 272 275 280 284 287 289 287 285 286 287 289 291 291 291 290 291 292 294 297 300 304 308 310 311 312 315 318 319 321
243 241 243 248 247 243 247 255 258 252 242 237 236 238 242 244 246 248 246 243 244 245 247 249 251 252 252 253 256 261 264 264 262 259 257 256 258 260 261 263 263 263 264 266 267 269 269 268 266 264 264 265 266 267 268 269 271 273 277 280 282 284 284 283 284 286 287 288 287 287 288 289 292 295 297 300 303 305 306 308 309 313 318 320 323
247 243 243 249 252 249 249 253 259 260 255 250 246 247 249 250 252 255 255 251 249 249 250 251 252 254 255 255 258 261 263 264 263 261 259 258 259 261 262 262 262 261 262 264 266 267 268 268 267 267 267 266 266 267 267 268 270 271 273 275 276 278 280 280 281 281 282 283 284 286 288 291 293 296 298 300 303 305 307 310 312 317 321 321 321
242 240 241 247 252 255 256 255 257 259 259 257 256 256 257 256 255 257 259 258 254 252 252 254 255 255 255 256 256 258 258 258 258 259 258 258 259 261 262 261 260 261 262 262 263 264 265 267 269 270 270 269 267 267 267 267 268 269 270 270 270 274 278 276 274 272 273 276 279 283 287 289 292 294 296 299 303 306 309 312 314 315 317 317 318
226 231 239 247 253 260 263 262 259 258 258 259 259 260 261 260 259 258 258 259 258 255 252 253 253 252 252 253 253 255 256 255 255 256 256 255 256 257 258 258 259 260 261 261 262 262 264 267 268 267 268 268 267 267 267 267 266 265 265 264 265 270 273 269 265 265 266 269 273 275 278 281 286 290 294 300 305 309 311 313 315 316 317 317 316
215 223 239 250 258 262 263 263 259 255 254 256 257 259 262 263 263 263 260 259 258 258 256 254 253 250 249 250 252 254 254 254 254 254 254 254 253 252 254 256 258 260 261 262 262 261 261 263 264 264 265 266 267 267 267 266 265 263 262 260 256 257 258 256 253 256 260 261 262 264 269 277 283 288 294 301 307 311 316 320 321 322 322 320 317
207 235 258 266 266 263 261 258 255 252 251 252 255 259 262 260 258 258 257 256 258 259 259 258 259 258 255 254 255 255 254 252 252 252 252 253 254 255 257 259 262 265 266 265 264 263 262 261 260 260 262 263 264 265 265 265 264 259 255 253 251 247 245 243 240 252 261 260 258 259 266 274 282 290 298 305 312 318 325 329 331 331 329 324 320
319 293 289 277 260 255 254 252 252 256 256 255 255 259 261 260 256 251 249 251 257 262 263 263 265 264 257 252 251 249 246 245 248 251 254 257 260 263 265 267 267 268 266 263 259 258 258 257 256 257 257 257 259 260 260 261 259 249 237 237 241 237 224 231 258 268 266 262 258 260 267 277 287 298 306 313 321 327 331 334 335 333 328 322 318
81 82 90 137 208 237 251 255 262 272 274 270 267 267 266 264 257 250 248 253 263 268 267 264 261 255 247 244 243 244 243 243 246 252 257 262 266 268 268 268 266 257 252 252 251 251 253 254 251 249 245 243 249 254 256 255 250 237 211 210 225 231 234 249 256 253 247 248 254 263 277 290 301 309 315 321 327 330 331 331 330 327 322 315 310
75 77 82 90 100 92 313 321 328 337 356 355 319 275 249 230 223 226 235 245 251 237 225 227 235 240 242 247 260 289 344 0 349 341 297 269 268 268 264 268 270 246 229 236 238 242 266 272 256 244 232 223 241 254 253 249 240 221 199 211 232 253 253 228 228 232 237 248 265 283 297 306 311 316 320 323 324 324 323 322 321 320 316 308 304
73 78 81 83 81 76 65 60 63 70 70 69 77 92 118 145 149 139 126 116 108 117 130 128 124 136 133 103 59 47 56 58 53 46 42 37 30 20 11 359 349 342 327 309 313 7 4 358 360 358 358 5 0 345 313 276 231 193 204 220 227 232 220 212 220 236 249 267 287 300 307 311 315 318 319 319 318 317 317 316 316 315 309 303 302
77 79 79 76 73 71 67 60 57 63 71 75 82 92 99 103 104 102 99 94 88 88 89 89 91 97 99 93 84 72 64 58 51 45 37 31 27 21 15 10 3 358 353 346 347 354 354 352 354 351 344 337 319 308 323 57 177 192 202 207 205 210 215 221 234 248 263 282 295 303 309 313 315 315 314 315 315 316 316 317 316 315 313 312 311
90 84 78 68 58 54 53 50 50 59 71 80 90 100 101 97 95 92 85 78 75 76 78 77 77 81 83 78 70 61 51 37 28 22 13 5 2 359 358 356 348 343 341 339 340 340 334 328 328 328 325 314 285 250 183 168 178 185 192 198 202 212 222 232 246 264 282 295 303 309 312 313 313 314 316 318 319 319 321 321 321 321 323 324 322
107 96 82 67 56 50 52 57 62 68 74 77 80 86 88 84 78 72 67 65 64 68 78 84 82 74 63 44 26 24 22 8 359 353 346 341 341 339 333 328 321 318 320 321 320 319 315 311 316 336 350 209 198 187 181 184 186 185 188 195 202 216 236 255 279 296 305 310 313 315 316 317 321 325 327 327 324 322 324 325 324 325 326 325 323
106 103 86 70 64 59 56 57 59 66 73 70 62 60 61 62 63 62 60 60 60 60 68 79 83 75 53 25 348 335 334 328 325 326 324 321 318 315 312 309 304 303 305 303 294 287 252 167 140 129 138 157 171 172 170 176 183 185 186 194 223 269 291 303 311 315 319 323 325 328 332 338 342 345 342 335 328 326 325 325 325 325 325 325 325
68 74 71 64 59 55 54 52 52 59 64 58 49 46 47 51 54 52 47 44 39 35 37 48 61 75 75 12 296 297 302 304 306 307 306 305 305 304 304 304 303 304 304 288 245 199 176 166 152 143 148 158 163 164 166 175 197 239 299 313 314 316 319 322 326 329 333 338 342 347 352 355 356 354 347 340 334 329 327 326 326 327 328 329 331
52 58 65 66 57 48 45 43 40 42 44 40 34 32 32 32 31 29 26 23 18 16 18 26 37 46 6 292 289 291 293 298 303 306 307 308 309 311 319 328 336 352 8 70 159 159 167 174 168 158 161 171 174 177 199 276 318 331 336 335 333 334 334 336 340 343 346 349 353 355 356 356 354 350 345 339 335 332 330 330 330 331 332 331 330
42 48 56 60 59 56 45 29 19 17 17 16 13 11 10 10 12 18 22 22 19 17 20 25 34 40 33 0 324 309 307 316 326 335 348 358 6 22 33 36 38 47 56 75 124 148 161 175 180 175 181 199 217 255 310 329 334 337 339 339 339 340 341 343 346 347 347 348 351 351 350 348 345 341 337 334 331 330 330 330 330 329 328 327 325
31 33 38 42 45 48 41 21 6 0 359 359 359 0 0 1 7 15 17 16 15 17 21 26 30 34 39 37 26 21 29 40 49 51 51 53 58 57 51 48 49 53 59 71 99 131 151 171 186 191 210 272 307 319 327 333 335 337 338 339 341 342 342 343 342 341 340 342 343 342 340 337 334 331 328 326 326 325 325 325 325 325 325 324 324
3 6 11 15 21 28 26 11 359 351 349 348 348 349 349 352 358 2 1 1 2 7 17 29 35 37 42 46 43 40 45 53 60 62 61 64 66 61 53 48 51 56 59 66 80 99 118 141 183 234 306 320 323 326 332 337 339 339 339 339 340 339 338 335 333 332 333 334 333 331 329 327 324 322 321 319 319 319 319 320 320 321 322 322 322
275 277 287 313 340 3 10 2 353 346 340 334 327 324 326 329 329 330 335 340 342 347 357 8 17 22 28 33 31 30 40 56 64 65 63 64 65 61 52 48 51 53 51 51 54 56 51 25 338 331 328 324 324 327 331 333 334 333 332 332 331 329 326 324 323 324 324 324 323 321 320 318 316 315 314 314 314 314 315 315 316 317 317 318 319
270 269 271 278 292 316 344 353 352 350 346 337 324 314 310 309 306 307 313 319 319 321 328 333 339 345 352 359 2 6 20 48 62 62 62 63 64 58 44 37 37 36 32 29 22 9 357 346 336 330 325 320 320 321 321 323 323 322 321 320 318 316 316 315 315 316 316 315 314 313 312 311 310 309 309 310 310 311 312 312 314 315 316 316 317
269 270 272 275 282 295 315 334 340 338 333 328 323 316 308 301 296 296 299 301 301 302 305 308 311 314 312 311 320 331 341 5 38 48 48 46 44 33 21 16 15 16 19 20 11 356 345 334 325 321 318 315 315 316 316 316 314 312 311 310 308 308 309 309 310 310 309 309 308 307 307 307 306 306 307 307 307 308 310 312 313 315 316 316 316
263 258 258 261 270 282 294 308 317 319 319 318 316 314 311 305 298 295 294 293 291 288 289 291 294 290 283 280 286 296 300 301 308 328 342 348 352 355 357 359 3 8 15 17 11 359 345 333 325 322 318 316 314 314 312 311 309 308 308 307 306 307 308 308 307 307 305 304 303 303 303 303 303 304 304 305 306 309 311 313 315 316 317 317 315
262 246 238 236 244 257 264 270 274 282 300 308 309 313 321 320 312 304 299 296 292 288 284 286 287 280 270 266 268 274 277 279 281 285 294 307 320 333 343 351 358 4 7 6 360 352 345 338 332 326 321 318 316 313 312 312 311 310 309 309 309 308 307 306 305 303 302 301 300 300 300 300 301 302 303 305 309 312 315 317 319 319 319 317 314
256 245 234 230 235 243 247 248 251 260 275 287 293 299 310 322 328 327 321 315 310 305 300 296 291 279 265 259 259 263 266 270 272 274 279 291 307 324 336 345 351 355 356 352 347 343 339 334 330 325 321 319 317 316 315 314 313 312 311 310 309 308 306 305 304 302 301 300 299 299 300 301 303 304 307 311 315 318 319 319 320 320 319 316 313
258 254 248 244 243 241 239 236 238 245 255 265 273 280 285 291 296 301 305 308 309 309 309 307 302 291 274 262 261 264 267 270 270 269 272 286 302 317 329 337 341 345 345 342 338 335 330 326 324 321 320 320 320 320 320 318 317 315 313 310 309 309 308 306 304 303 301 300 299 299 301 302 304 307 311 316 319 319 318 317 318 319 318 316 314
258 259 258 258 256 255 252 247 243 243 247 251 255 257 259 264 271 274 278 285 291 297 301 303 302 299 291 279 272 270 269 268 267 267 274 288 303 316 326 332 337 338 337 335 332 328 325 324 323 323 324 326 327 329 329 328 325 322 319 317 316 314 311 308 305 302 300 298 299 300 302 303 306 311 316 319 319 317 316 316 315 316 316 316 316
256 258 260 262 263 263 263 262 262 260 259 258 260 261 260 260 263 266 272 278 283 287 292 295 296 297 295 291 285 277 270 265 265 269 279 292 305 318 326 331 334 333 331 329 327 326 326 326 326 327 330 333 335 337 337 335 333 330 328 325 322 318 313 309 303 297 295 297 300 303 305 308 313 318 321 322 320 320 319 317 316 316 316 315 315
264 263 264 265 266 265 265 266 267 268 267 267 267 268 267 267 266 265 269 275 281 284 288 291 291 291 290 289 283 274 265 263 265 273 284 296 307 317 323 327 328 327 325 325 325 326 329 330 331 332 334 335 338 339 338 337 336 334 330 326 323 322 318 309 300 298 301 304 305 306 308 313 320 325 327 327 327 328 327 323 320 320 317 314 312
278 275 274 273 272 271 270 270 269 269 269 269 268 267 266 266 266 265 264 267 274 280 283 287 290 289 284 276 267 261 259 263 268 275 286 297 305 312 318 320 320 320 320 322 324 326 330 332 331 331 333 335 337 337 337 337 337 334 330 328 327 325 321 313 309 310 308 304 305 309 314 321 329 333 331 329 330 329 327 325 322 319 317 315 313
275 274 275 276 278 280 279 278 276 274 272 271 270 267 265 265 265 265 263 262 265 269 274 278 283 282 272 260 254 253 255 260 267 279 290 296 302 309 314 316 317 318 321 324 326 328 329 329 328 330 333 334 333 334 334 335 335 334 333 330 324 320 318 314 308 303 301 305 313 321 325 329 335 336 333 331 330 328 325 322 319 318 318 317 315
273 276 280 285 289 290 288 285 281 278 276 273 271 269 267 268 269 269 264 260 259 261 265 271 273 269 259 252 252 253 257 263 275 288 296 298 302 308 311 312 314 318 322 325 325 325 324 325 326 328 328 328 327 329 329 330 332 334 330 319 309 309 309 304 301 303 309 317 324 324 323 328 335 339 338 337 335 331 328 325 321 320 320 318 315
274 278 282 285 286 285 283 281 278 275 274 271 269 267 267 267 267 265 261 259 260 261 264 266 265 259 253 250 249 252 260 272 282 289 293 296 300 305 307 309 313 318 321 322 320 319 319 319 320 321 321 321 321 323 324 326 329 329 323 312 302 298 297 299 305 311 316 318 318 318 324 337 347 347 344 343 339 334 330 326 321 320 320 316 314
272 274 277 279 279 278 277 276 273 270 267 263 261 260 262 262 262 261 264 269 270 267 265 261 252 243 241 242 246 254 268 278 282 285 289 293 298 303 307 311 315 317 317 316 313 312 313 314 314 314 315 316 317 319 321 323 323 321 315 305 290 287 293 302 308 310 312 316 321 327 340 354 354 348 346 346 342 337 333 327 321 319 318 313 310
271 272 273 274 276 277 278 277 273 269 265 262 261 264 269 273 277 273 267 263 259 255 254 251 246 244 246 249 255 264 273 276 279 283 287 291 295 301 305 308 310 311 310 308 305 305 307 307 308 309 311 311 313 316 318 319 317 314 309 298 288 289 300 305 303 306 314 322 324 329 344 354 350 346 346 344 341 340 338 333 328 322 314 309 308
Height
1570 1571 1573 1575 1576 1578 1579 1581 1582 1584 1585 1586 1587 1589 1590 1591 1592 1593 1594 1595 1596 1597 1597 1598 1599 1600 1600 1601 1602 1602 1603 1604 1605 1605 1605 1606 1606 1607 1607 1607 1608 1608 1609 1609 1609 1609 1609 1609 1609 1609 1609 1609 1609 1609 1608 1608 1608 1608 1608 1607 1607 1607 1606 1606 1605 1605 1604 1604 1603 1602 1601 1600 1599 1597 1596 1595 1594 1593 1592 1591 1589 1588 1587 1585 1584
1568 1570 1572 1573 1575 1576 1578 1579 1581 1582 1583 1585 1586 1587 1588 1589 1591 1592 1593 1594 1594 1595 1596 1597 1598 1599 1599 1600 1600 1601 1602 1603 1603 1604 1604 1605 1605 1606 1606 1606 1607 1607 1607 1608 1608 1608 1608 1608 1608 1608 1608 1608 1607 1607 1607 1607 1607 1607 1607 1606 1606 1606 1606 1605 1605 1604 1603 1602 1602 1601 1600 1599 1598 1597 1595 1594 1593 1592 1591 1590 1589 1587 1586 1584 1583
1567 1569 1570 1572 1573 1575 1576 1578 1579 1581 1582 1583 1585 1586 1587 1588 1589 1590 1591 1592 1593 1594 1595 1595 1596 1597 1598 1599 1599 1600 1601 1601 1602 1602 1603 1603 1604 1604 1605 1605 1605 1606 1606 1606 1607 1607 1607 1607 1607 1607 1607 1606 1606 1606 1606 1606 1606 1606 1606 1605 1605 1605 1605 1604 1604 1603 1602 1601 1601 1600 1599 1598 1597 1596 1595 1593 1592 1591 1590 1589 1588 1586 1585 1584 1582
1565 1567 1569 1570 1572 1573 1575 1576 1578 1579 1580 1582 1583 1585 1586 1587 1588 1589 1590 1591 1592 1593 1593 1594 1595 1596 1597 1597 1598 1599 1599 1600 1601 1601 1601 1602 1602 1603 1603 1604 1604 1605 1605 1605 1605 1606 1606 1606 1606 1606 1605 1605 1605 1605 1605 1605 1605 1605 1604 1604 1604 1604 1604 1603 1603 1602 1601 1600 1600 1599 1598 1596 1596 1595 1593 1592 1592 1591 1589 1588 1587 1585 1584 1583 1581
1564 1565 1567 1569 1570 1572 1573 1574 1576 1577 1579 1580 1582 1583 1585 1586 1587 1587 1588 1589 1590 1591 1592 1593 1594 1594 1595 1596 1596 1597 1598 1599 1599 1600 1600 1601 1601 1602 1602 1603 1603 1603 1604 1604 1604 1605 1604 1604 1605 1604 1604 1604 1604 1604 1604 1604 1604 1603 1603 1603 1603 1603 1602 1602 1602 1601 1601 1599 1599 1598 1597 1595 1594 1594 1592 1591 1590 1589 1588 1587 1586 1584 1583 1582 1580
1562 1564 1565 1567 1568 1570 1571 1573 1574 1575 1577 1579 1580 1582 1583 1584 1585 1586 1587 1588 1589 1590 1591 1591 1592 1593 1594 1594 1595 1595 1596 1597 1597 1598 1599 1599 1600 1600 1601 1601 1602 1602 1603 1603 1603 1603 1603 1603 1603 1603 1603 1603 1603 1603 1603 1603 1602 1602 1602 1601 1601 1601 1601 1601 1601 1600 1599 1598 1597 1597 1596 1595 1593 1592 1591 1590 1588 1587 1586 1586 1585 1583 1581 1580 1578
1561 1562 1564 1565 1566 1568 1569 1571 1572 1574 1575 1577 1579 1580 1581 1583 1584 1585 1586 1586 1587 1588 1589 1590 1590 1591 1592 1592 1593 1594 1594 1595 1596 1596 1597 1598 1598 1599 1599 1600 1600 1601 1601 1602 1602 1602 1602 1602 1602 1602 1602 1602 1602 1602 1602 1601 1601 1601 1601 1600 1600 1600 1600 1599 1599 1598 1598 1597 1596 1595 1594 1594 1593 1591 1590 1589 1588 1586 1584 1583 1582 1581 1580 1578 1577
1560 1561 1562 1563 1565 1566 1568 1570 1571 1572 1574 1575 1577 1578 1579 1581 1582 1583 1584 1585 1586 1586 1587 1588 1589 1590 1590 1591 1591 1592 1592 1593 1594 1594 1595 1596 1597 1597 1598 1598 1599 1599 1600 1600 1600 1601 1601 1601 1601 1601 1601 1601 1601 1600 1600 1600 1600 1600 1600 1599 1599 1598 1598 1598 1597 1597 1596 1596 1595 1594 1593 1593 1592 1590 1589 1588 1587 1585 1584 1582 1580 1579 1578 1577 1576
1558 1559 1560 1562 1563 1565 1566 1568 1569 1571 1572 1574 1575 1576 1577 1579 1580 1581 1582 1583 1584 1585 1585 1586 1587 1588 1588 1589 1590 1590 1591 1591 1592 1593 1593 1594 1595 1595 1596 1596 1597 1597 1598 1598 1599 1599 1599 1599 1599 1599 1599 1599 1599 1599 1599 1599 1599 1599 1599 1598 1598 1597 1597 1596 1596 1595 1595 1594 1593 1593 1592 1591 1590 1589 1588 1587 1585 1584 1582 1581 1579 1577 1576 1575 1575
1556 1557 1558 1560 1562 1563 1565 1567 1568 1570 1571 1572 1573 1574 1576 1577 1578 1579 1579 1581 1582 1583 1584 1585 1585 1586 1587 1587 1588 1588 1589 1590 1590 1591 1592 1592 1593 1594 1594 1594 1595 1595 1596 1596 1597 1597 1597 1598 1598 1598 1598 1598 1598 1598 1598 1598 1598 1597 1597 1597 1596 1596 1595 1595 1594 1594 1593 1592 1592 1591 1590 1589 1589 1588 1586 1585 1584 1583 1581 1580 1578 1576 1575 1573 1573
1554 1555 1557 1559 1560 1562 1564 1565 1567 1568 1570 1571 1572 1573 1574 1575 1576 1577 1578 1579 1580 1581 1582 1583 1583 1584 1585 1586 1587 1587 1587 1588 1589 1590 1590 1591 1591 1592 1592 1593 1593 1593 1594 1594 1594 1595 1595 1596 1596 1596 1596 1596 1596 1596 1596 1596 1596 1596 1596 1595 1595 1594 1594 1593 1593 1592 1591 1591 1590 1589 1588 1587 1587 1586 1584 1583 1582 1581 1580 1578 1577 1575 1573 1572 1571
1553 1554 1556 1557 1559 1560 1562 1564 1566 1567 1568 1570 1571 1572 1573 1574 1574 1575 1576 1577 1578 1579 1580 1581 1582 1583 1583 1584 1585 1585 1586 1587 1587 1588 1589 1589 1590 1590 1590 1590 1590 1591 1591 1592 1592 1593 1593 1593 1593 1594 1594 1594 1595 1595 1595 1595 1594 1594 1594 1593 1593 1593 1592 1591 1591 1590 1590 1589 1588 1588 1586 1585 1584 1583 1582 1581 1580 1579 1578 1577 1575 1574 1572 1571 1570
1550 1552 1554 1556 1557 1558 1560 1561 1563 1565 1566 1567 1569 1570 1571 1572 1572 1573 1574 1575 1576 1577 1578 1579 1580 1581 1582 1582 1583 1583 1584 1585 1586 1586 1587 1587 1588 1588 1588 1588 1588 1589 1589 1589 1590 1590 1591 1591 1591 1592 1592 1592 1593 1593 1593 1593 1592 1592 1592 1591 1591 1591 1590 1589 1589 1588 1588 1587 1586 1585 1584 1583 1582 1582 1580 1579 1578 1577 1576 1575 1574 1572 1571 1571 1570
1548 1550 1552 1554 1556 1557 1559 1560 1561 1562 1563 1565 1567 1568 1569 1570 1570 1571 1572 1573 1574 1575 1576 1577 1578 1579 1579 1580 1581 1582 1582 1583 1584 1584 1585 1585 1586 1586 1586 1586 1586 1587 1587 1587 1588 1588 1589 1589 1589 1589 1590 1590 1590 1591 1591 1591 1590 1590 1590 1589 1589 1588 1587 1587 1586 1585 1585 1584 1584 1583 1582 1581 1581 1580 1579 1577 1576 1575 1574 1573 1572 1571 1570 1570 1569
1547 1549 1551 1552 1554 1556 1558 1560 1560 1560 1561 1562 1564 1566 1567 1568 1569 1570 1570 1571 1572 1573 1574 1574 1575 1576 1577 1577 1578 1579 1579 1580 1581 1582 1582 1583 1583 1583 1584 1584 1584 1585 1585 1585 1586 1586 1586 1587 1587 1587 1587 1588 1588 1588 1588 1588 1588 1588 1587 1587 1586 1586 1585 1584 1583 1583 1582 1581 1581 1580 1579 1579 1578 1578 1577 1576 1575 1574 1573 1572 1571 1570 1569 1569 1568
1545 1548 1550 1551 1554 1556 1558 1559 1559 1559 1559 1560 1561 1562 1564 1566 1567 1569 1569 1570 1570 1571 1571 1572 1573 1573 1574 1575 1575 1576 1576 1577 1578 1579 1579 1580 1581 1581 1582 1582 1583 1583 1583 1584 1584 1584 1584 1584 1585 1585 1585 1585 1585 1585 1586 1586 1585 1585 1585 1584 1584 1583 1582 1581 1580 1580 1579 1579 1578 1577 1577 1576 1576 1575 1574 1574 1573 1572 1572 1571 1570 1569 1569 1568 1567
1543 1547 1548 1550 1552 1554 1556 1557 1558 1558 1557 1557 1558 1560 1561 1563 1565 1566 1567 1568 1568 1569 1569 1569 1570 1571 1572 1572 1573 1573 1574 1574 1575 1575 1576 1577 1578 1578 1579 1580 1580 1580 1581 1581 1581 1581 1581 1581 1582 1582 1582 1582 1582 1582 1583 1582 1582 1582 1582 1581 1581 1580 1579 1579 1578 1577 1576 1576 1575 1575 1574 1574 1573 1573 1572 1571 1571 1571 1570 1570 1569 1568 1568 1567 1566
1542 1544 1545 1547 1550 1551 1552 1554 1555 1556 1556 1556 1557 1558 1559 1560 1562 1564 1565 1566 1566 1566 1566 1567 1567 1568 1569 1569 1570 1571 1571 1571 1571 1572 1573 1573 1574 1575 1576 1576 1577 1577 1578 1578 1578 1578 1578 1578 1578 1579 1579 1579 1579 1579 1579 1579 1579 1579 1579 1578 1578 1578 1577 1576 1575 1574 1574 1573 1573 1572 1572 1571 1571 1571 1570 1570 1570 1569 1569 1568 1568 1567 1566 1566 1565
1541 1542 1544 1546 1548 1549 1549 1549 1550 1553 1555 1555 1555 1556 1556 1558 1559 1561 1562 1564 1564 1563 1563 1564 1564 1565 1565 1566 1567 1568 1568 1568 1568 1568 1569 1570 1571 1571 1572 1573 1573 1574 1574 1574 1575 1575 1574 1574 1575 1575 1575 1575 1576 1576 1576 1576 1575 1575 1575 1575 1575 1575 1575 1574 1573 1572 1571 1571 1570 1570 1570 1570 1570 1570 1570 1569 1569 1568 1568 1567 1566 1566 1565 1564 1563
1540 1541 1543 1545 1546 1545 1545 1546 1547 1550 1553 1554 1553 1553 1554 1556 1557 1558 1559 1561 1562 1561 1560 1560 1561 1561 1562 1563 1563 1564 1564 1564 1565 1565 1565 1566 1567 1567 1568 1569 1570 1570 1570 1571 1571 1571 1571 1571 1571 1571 1571 1571 1572 1572 1572 1572 1572 1572 1572 1572 1572 1572 1572 1572 1571 1570 1569 1569 1569 1569 1569 1569 1569 1569 1569 1568 1568 1567 1566 1566 1565 1564 1563 1562 1561
1538 1539 1540 1542 1542 1542 1542 1544 1545 1548 1551 1551 1550 1550 1552 1553 1555 1555 1556 1557 1559 1560 1559 1557 1557 1559 1560 1561 1561 1561 1561 1561 1561 1562 1562 1562 1563 1563 1564 1565 1566 1567 1568 1569 1569 1568 1568 1567 1566 1566 1567 1567 1568 1568 1568 1568 1568 1568 1569 1569 1569 1569 1569 1568 1568 1568 1568 1568 1568 1568 1568 1568 1569 1569 1568 1568 1567 1566 1565 1564 1563 1562 1561 1560 1559
1535 1535 1537 1539 1539 1540 1541 1543 1544 1546 1548 1548 1548 1548 1549 1550 1551 1552 1552 1553 1556 1558 1557 1555 1555 1557 1559 1559 1559 1558 1558 1558 1558 1558 1558 1559 1559 1560 1560 1561 1563 1563 1564 1566 1566 1565 1565 1564 1563 1563 1563 1564 1564 1564 1564 1565 1565 1565 1565 1565 1565 1566 1566 1565 1566 1567 1568 1568 1568 1568 1568 1568 1568 1568 1568 1567 1566 1565 1564 1563 1562 1560 1559 1558 1557
1534 1535 1537 1538 1539 1541 1542 1544 1545 1545 1545 1546 1546 1546 1547 1547 1548 1548 1549 1551 1554 1555 1554 1554 1554 1555 1555 1556 1556 1555 1554 1554 1554 1554 1555 1555 1556 1556 1557 1558 1559 1560 1561 1561 1562 1561 1561 1560 1559 1560 1560 1560 1561 1560 1561 1561 1562 1562 1562 1562 1562 1562 1563 1564 1565 1566 1567 1568 1568 1567 1567 1567 1568 1568 1567 1566 1565 1564 1563 1562 1561 1559 1557 1556 1555
1535 1537 1538 1539 1541 1543 1544 1545 1545 1544 1543 1543 1544 1544 1545 1546 1546 1546 1547 1549 1552 1553 1553 1553 1553 1553 1553 1553 1553 1553 1551 1551 1551 1551 1552 1553 1553 1554 1554 1555 1556 1557 1557 1557 1557 1557 1558 1557 1556 1556 1557 1557 1557 1558 1558 1558 1559 1560 1561 1560 1559 1559 1560 1562 1563 1565 1566 1566 1566 1566 1566 1566 1566 1566 1566 1565 1564 1563 1562 1561 1560 1558 1557 1555 1554
1537 1538 1539 1541 1542 1543 1544 1544 1544 1543 1543 1543 1543 1543 1545 1546 1546 1547 1548 1549 1551 1552 1553 1553 1553 1553 1553 1552 1552 1552 1551 1550 1550 1551 1551 1552 1553 1553 1554 1554 1555 1555 1555 1555 1555 1555 1556 1556 1556 1555 1555 1555 1556 1556 1556 1557 1558 1560 1560 1559 1559 1559 1560 1561 1562 1563 1564 1565 1565 1565 1565 1564 1564 1564 1564 1563 1562 1562 1561 1559 1558 1557 1556 1554 1553
1538 1539 1540 1542 1543 1544 1544 1545 1545 1545 1545 1545 1546 1546 1547 1548 1548 1549 1550 1551 1552 1553 1553 1553 1552 1552 1552 1552 1552 1552 1552 1551 1551 1552 1552 1552 1553 1554 1554 1554 1555 1555 1555 1555 1555 1555 1555 1555 1556 1556 1555 1555 1556 1556 1557 1557 1558 1559 1559 1559 1559 1559 1560 1561 1562 1563 1563 1564 1564 1564 1563 1563 1562 1562 1562 1561 1561 1560 1559 1558 1557 1556 1555 1553 1552
1541 1542 1543 1544 1544 1545 1546 1546 1547 1547 1548 1548 1548 1549 1549 1550 1551 1551 1552 1552 1553 1554 1554 1553 1553 1552 1552 1552 1552 1552 1552 1552 1552 1553 1553 1553 1553 1554 1554 1554 1554 1555 1555 1554 1554 1554 1554 1555 1556 1557 1557 1557 1557 1557 1557 1558 1559 1560 1560 1560 1560 1560 1561 1561 1562 1562 1562 1563 1563 1562 1562 1561 1561 1560 1560 1559 1559 1558 1557 1556 1555 1554 1553 1552 1551
1544 1545 1545 1546 1547 1547 1548 1548 1548 1549 1550 1550 1550 1550 1551 1551 1552 1552 1552 1553 1553 1553 1554 1554 1553 1553 1553 1553 1553 1553 1553 1553 1553 1553 1554 1554 1554 1554 1554 1554 1554 1554 1554 1554 1554 1554 1555 1555 1556 1556 1557 1558 1558 1558 1559 1559 1560 1560 1560 1560 1560 1560 1561 1561 1562 1562 1562 1562 1561 1561 1561 1560 1559 1558 1557 1557 1556 1556 1555 1554 1554 1552 1551 1550 1549
1546 1547 1547 1548 1549 1549 1550 1550 1550 1550 1551 1551 1551 1552 1552 1552 1552 1552 1552 1553 1553 1553 1553 1554 1554 1554 1553 1553 1553 1553 1554 1554 1554 1554 1554 1554 1555 1555 1555 1555 1555 1555 1555 1554 1554 1554 1555 1555 1555 1556 1557 1558 1559 1559 1560 1560 1561 1561 1560 1560 1560 1561 1561 1561 1562 1561 1561 1561 1560 1560 1559 1558 1557 1556 1556 1555 1555 1555 1554 1553 1553 1551 1550 1549 1548
1547 1548 1548 1549 1550 1551 1551 1551 1551 1551 1552 1552 1553 1553 1553 1553 1553 1553 1553 1553 1553 1554 1554 1554 1554 1554 1554 1554 1553 1553 1554 1554 1555 1555 1555 1555 1555 1555 1555 1555 1555 1555 1554 1554 1554 1554 1555 1555 1556 1556 1557 1558 1559 1560 1561 1561 1561 1561 1561 1560 1561 1561 1561 1561 1561 1560 1560 1559 1559 1558 1558 1557 1556 1555 1555 1555 1554 1554 1553 1552 1551 1550 1549 1548 1546
1548 1548 1549 1549 1550 1551 1551 1551 1552 1552 1552 1553 1553 1553 1553 1554 1554 1554 1554 1554 1554 1554 1554 1554 1554 1554 1554 1554 1554 1554 1554 1554 1555 1555 1555 1555 1555 1555 1554 1554 1554 1554 1554 1554 1554 1554 1555 1556 1557 1557 1558 1559 1560 1561 1561 1561 1561 1561 1561 1561 1561 1561 1560 1560 1559 1559 1558 1558 1557 1557 1556 1555 1555 1554 1554 1554 1553 1553 1552 1551 1550 1549 1548 1546 1545
1548 1549 1549 1550 1550 1551 1551 1551 1552 1552 1552 1553 1553 1554 1554 1554 1554 1554 1554 1554 1555 1554 1554 1554 1554 1554 1554 1554 1554 1554 1554 1554 1555 1555 1555 1554 1554 1554 1554 1553 1553 1553 1553 1553 1554 1555 1556 1557 1558 1558 1559 1560 1560 1561 1561 1561 1561 1561 1561 1561 1560 1560 1560 1559 1558 1558 1557 1556 1556 1555 1555 1554 1554 1554 1553 1553 1552 1552 1551 1550 1549 1548 1546 1545 1544
1549 1549 1550 1550 1550 1551 1551 1552 1552 1552 1552 1553 1553 1553 1554 1554 1554 1554 1554 1554 1555 1555 1554 1554 1554 1554 1554 1554 1554 1554 1554 1554 1554 1554 1554 1554 1554 1554 1553 1553 1554 1554 1554 1554 1555 1555 1556 1558 1558 1559 1560 1560 1560 1560 1560 1560 1560 1560 1560 1560 1560 1560 1559 1558 1558 1557 1556 1555 1554 1554 1553 1553 1553 1552 1552 1551 1551 1550 1549 1548 1547 1546 1544 1543 1542
1550 1550 1550 1551 1551 1551 1551 1552 1552 1553 1553 1553 1553 1554 1554 1554 1554 1554 1554 1555 1555 1555 1555 1555 1555 1555 1555 1555 1555 1555 1555 1555 1555 1555 1554 1554 1554 1554 1554 1555 1555 1555 1555 1555 1556 1556 1557 1558 1559 1559 1559 1560 1560 1560 1560 1559 1559 1559 1559 1559 1559 1559 1558 1558 1557 1556 1555 1554 1553 1553 1552 1552 1552 1551 1551 1550 1549 1548 1547 1546 1545 1544 1542 1541 1539
1550 1550 1551 1551 1551 1551 1551 1551 1552 1552 1553 1553 1553 1554 1554 1554 1555 1555 1555 1555 1555 1555 1555 1556 1556 1556 1556 1556 1556 1556 1556 1556 1555 1555 1555 1555 1555 1555 1556 1556 1556 1557 1557 1557 1557 1557 1558 1558 1559 1559 1559 1559 1560 1559 1559 1558 1558 1558 1558 1557 1557 1557 1557 1557 1556 1556 1555 1553 1552 1552 1551 1551 1550 1550 1549 1549 1547 1546 1545 1544 1543 1541 1540 1539 1537
1550 1550 1550 1550 1550 1550 1551 1551 1551 1552 1552 1553 1553 1553 1554 1554 1555 1555 1555 1555 1555 1555 1556 1556 1556 1556 1556 1557 1557 1557 1557 1557 1556 1556 1556 1556 1557 1557 1558 1558 1558 1558 1558 1558 1558 1558 1558 1558 1559 1559 1559 1559 1559 1558 1558 1557 1557 1556 1556 1556 1556 1556 1556 1555 1555 1554 1553 1552 1551 1550 1549 1549 1549 1548 1547 1546 1545 1544 1543 1541 1540 1539 1538 1537 1535
1550 1550 1550 1550 1550 1550 1550 1550 1551 1551 1551 1552 1552 1553 1553 1554 1554 1555 1555 1555 1555 1555 1556 1556 1556 1556 1557 1557 1557 1557 1557 1557 1557 1557 1557 1557 1558 1558 1559 1559 1558 1559 1559 1558 1558 1558 1558 1558 1558 1558 1558 1558 1558 1558 1557 1556 1556 1556 1555 1555 1555 1555 1554 1554 1553 1552 1551 1550 1549 1548 1547 1547 1546 1545 1545 1544 1543 1541 1540 1538 1537 1536 1535 1534 1532
1549 1548 1549 1549 1549 1549 1549 1550 1550 1550 1551 1551 1552 1552 1552 1553 1553 1554 1554 1555 1555 1555 1555 1556 1556 1556 1556 1556 1556 1557 1557 1558 1558 1557 1558 1558 1558 1559 1559 1559 1559 1559 1558 1558 1558 1558 1558 1558 1558 1558 1557 1557 1557 1557 1556 1556 1555 1555 1555 1554 1554 1553 1553 1552 1551 1550 1549 1549 1547 1546 1545 1544 1543 1543 1542 1541 1540 1538 1537 1536 1535 1533 1532 1531 1530
1547 1547 1548 1548 1548 1548 1548 1549 1549 1550 1550 1551 1551 1551 1551 1552 1552 1553 1553 1554 1554 1555 1555 1555 1555 1556 1556 1556 1556 1556 1557 1557 1557 1557 1558 1558 1559 1559 1559 1559 1558 1558 1558 1557 1557 1557 1557 1557 1557 1557 1556 1556 1556 1555 1555 1555 1554 1554 1554 1553 1553 1552 1551 1550 1549 1548 1547 1547 1545 1544 1543 1542 1541 1540 1539 1538 1537 1535 1534 1533 1531 1530 1529 1528 1527
1546 1547 1547 1547 1547 1547 1547 1548 1548 1549 1549 1550 1550 1550 1550 1551 1551 1551 1552 1552 1553 1554 1554 1554 1555 1555 1555 1555 1556 1556 1556 1556 1557 1557 1557 1558 1558 1558 1558 1558 1558 1557 1557 1557 1557 1556 1556 1556 1556 1555 1555 1555 1554 1554 1554 1553 1553 1552 1552 1551 1551 1550 1549 1548 1547 1546 1545 1544 1543 1542 1541 1539 1538 1537 1536 1535 1534 1533 1531 1530 1528 1527 1526 1526 1525
1546 1546 1546 1546 1546 1546 1547 1547 1547 1548 1548 1548 1549 1549 1549 1550 1550 1550 1551 1551 1552 1552 1553 1553 1553 1554 1554 1554 1554 1555 1555 1555 1556 1556 1556 1557 1557 1557 1557 1557 1557 1557 1556 1556 1556 1556 1555 1555 1555 1554 1553 1553 1552 1552 1552 1551 1551 1550 1549 1549 1548 1547 1546 1545 1544 1543 1542 1541 1540 1539 1538 1537 1535 1534 1533 1532 1531 1530 1529 1527 1526 1525 1524 1524 1523
1545 1545 1545 1545 1545 1546 1546 1546 1546 1547 1547 1547 1548 1548 1548 1549 1549 1549 1550 1550 1550 1551 1551 1551 1552 1552 1553 1553 1553 1553 1554 1554 1554 1555 1555 1555 1556 1556 1556 1556 1556 1555 1555 1555 1555 1554 1554 1554 1553 1553 1552 1551 1551 1550 1549 1549 1548 1547 1546 1545 1545 1544 1543 1542 1541 1540 1539 1538 1538 1537 1536 1534 1533 1532 1531 1530 1529 1528 1526 1525 1524 1523 1522 1522 1521
1544 1544 1544 1544 1544 1545 1545 1545 1545 1546 1546 1546 1546 1547 1547 1547 1548 1548 1549 1549 1549 1549 1550 1550 1550 1551 1551 1552 1552 1552 1552 1553 1553 1553 1554 1554 1554 1554 1554 1554 1554 1554 1554 1553 1553 1553 1552 1552 1551 1551 1550 1549 1548 1548 1547 1546 1545 1544 1543 1542 1541 1541 1540 1539 1538 1537 1537 1536 1535 1535 1533 1532 1531 1530 1529 1528 1527 1526 1525 1523 1523 1522 1521 1520 1520
1543 1543 1543 1543 1543 1543 1544 1544 1544 1544 1544 1545 1545 1545 1545 1546 1546 1547 1547 1547 1548 1548 1548 1549 1549 1549 1550 1550 1550 1550 1551 1551 1552 1552 1553 1553 1553 1553 1553 1552 1552 1552 1552 1552 1551 1551 1550 1550 1549 1549 1548 1547 1547 1546 1545 1544 1543 1542 1541 1540 1539 1538 1537 1536 1536 1535 1535 1534 1534 1533 1532 1531 1529 1528 1527 1526 1525 1524 1523 1522 1521 1520 1520 1519 1519
1542 1542 1542 1542 1542 1542 1542 1542 1542 1542 1542 1543 1543 1543 1544 1544 1544 1544 1545 1545 1546 1546 1546 1547 1547 1548 1548 1548 1549 1549 1549 1550 1550 1551 1551 1551 1551 1551 1551 1551 1551 1551 1550 1550 1550 1549 1548 1548 1547 1547 1546 1546 1545 1544 1543 1542 1541 1540 1539 1538 1537 1536 1535 1535 1534 1534 1533 1533 1532 1531 1530 1529 1528 1526 1525 1524 1523 1522 1521 1520 1520 1519 1518 1518 1518
1541 1541 1541 1541 1541 1541 1541 1541 1541 1541 1540 1541 1541 1541 1541 1541 1542 1542 1542 1543 1543 1544 1544 1544 1545 1546 1546 1547 1547 1547 1548 1548 1549 1549 1549 1549 1549 1550 1550 1549 1549 1549 1549 1549 1548 1548 1547 1546 1546 1545 1545 1544 1543 1542 1541 1540 1539 1538 1537 1536 1535 1534 1534 1533 1533 1533 1533 1532 1531 1530 1529 1528 1526 1525 1523 1522 1521 1521 1520 1519 1518 1518 1517 1517 1516
1539 1539 1539 1540 1539 1539 1539 1539 1539 1539 1539 1539 1538 1538 1539 1539 1539 1540 1540 1540 1541 1541 1541 1542 1543 1544 1545 1545 1546 1546 1546 1547 1547 1547 1547 1548 1548 1548 1548 1548 1548 1547 1547 1547 1547 1546 1546 1545 1544 1543 1543 1542 1541 1540 1539 1538 1537 1536 1535 1534 1534 1533 1533 1532 1532 1532 1532 1531 1530 1528 1527 1526 1525 1523 1522 1521 1520 1519 1519 1518 1517 1517 1516 1515 1515
1538 1538 1538 1538 1538 1538 1538 1537 1537 1537 1537 1536 1536 1536 1536 1536 1536 1537 1537 1538 1538 1539 1539 1540 1541 1542 1543 1543 1544 1544 1544 1545 1545 1545 1546 1546 1546 1546 1546 1546 1546 1545 1545 1545 1545 1545 1545 1544 1543 1542 1541 1540 1539 1538 1537 1536 1535 1534 1533 1533 1533 1532 1532 1531 1531 1531 1530 1529 1528 1527 1526 1524 1523 1522 1521 1520 1519 1518 1517 1517 1516 1515 1514 1514 1514
1536 1536 1536 1536 1536 1535 1535 1535 1535 1535 1534 1534 1534 1534 1534 1534 1534 1534 1535 1535 1536 1537 1537 1538 1539 1540 1541 1541 1542 1542 1543 1543 1543 1543 1543 1544 1544 1544 1544 1544 1544 1544 1544 1544 1544 1544 1543 1542 1541 1540 1539 1538 1537 1536 1535 1534 1533 1533 1532 1531 1531 1531 1530 1530 1530 1529 1528 1527 1527 1525 1524 1523 1522 1521 1520 1519 1518 1517 1516 1516 1515 1514 1513 1513 1512
1534 1533 1533 1533 1533 1532 1532 1532 1532 1532 1532 1532 1532 1532 1532 1532 1532 1533 1533 1533 1534 1535 1536 1536 1537 1538 1539 1540 1540 1541 1541 1541 1541 1541 1542 1542 1542 1542 1542 1542 1542 1542 1542 1542 1542 1542 1541 1541 1539 1538 1538 1537 1536 1534 1533 1533 1532 1531 1530 1530 1530 1529 1529 1529 1528 1528 1527 1526 1525 1524 1523 1522 1521 1520 1519 1518 1517 1516 1515 1514 1514 1513 1512 1512 1511
1531 1531 1530 1530 1530 1530 1529 1529 1530 1530 1530 1530 1530 1530 1530 1530 1531 1531 1532 1532 1533 1534 1534 1535 1536 1537 1537 1538 1538 1539 1539 1539 1539 1540 1540 1540 1541 1541 1541 1541 1541 1541 1541 1540 1540 1540 1539 1538 1537 1537 1536 1535 1534 1533 1532 1531 1531 1530 1529 1529 1528 1528 1528 1528 1527 1526 1525 1525 1524 1523 1522 1521 1520 1519 1518 1517 1516 1515 1514 1513 1512 1512 1511 1511 1510